| time (UTC) | temp F | wind direction | speed MPH | gust MPH | rain 1hr in | rain 24hr in | rain mn in | humidity % | barometer mb |
| 20260507195533 | 93 | 243 | 1.0 | 6.0 | 0.00 | 0.00 | 0.00 | 10 | 1009.0 |
| 20260507195033 | 93 | 209 | 2.0 | 5.0 | 0.00 | 0.00 | 0.00 | 11 | 1009.1 |
| 20260507194533 | 93 | 210 | 2.0 | 5.0 | 0.00 | 0.00 | 0.00 | 10 | 1009.2 |
| 20260507194031 | 92 | 244 | 1.0 | 7.0 | 0.00 | 0.00 | 0.00 | 11 | 1009.2 |
| 20260507193530 | 92 | 82 | 2.0 | 7.0 | 0.00 | 0.00 | 0.00 | 10 | 1009.3 |
| 20260507193038 | 92 | 276 | 1.0 | 5.0 | 0.00 | 0.00 | 0.00 | 10 | 1009.4 |
| 20260507192529 | 92 | 260 | 1.0 | 5.0 | 0.00 | 0.00 | 0.00 | 10 | 1009.5 |
| 20260507192027 | 92 | 134 | 1.0 | 5.0 | 0.00 | 0.00 | 0.00 | 10 | 1009.7 |
| 20260507191527 | 92 | 169 | 1.0 | 5.0 | 0.00 | 0.00 | 0.00 | 11 | 1009.8 |
| 20260507191024 | 91 | 126 | 1.0 | 6.0 | 0.00 | 0.00 | 0.00 | 11 | 1009.9 |
| 20260507190524 | 90 | 54 | 1.0 | 6.0 | 0.00 | 0.00 | 0.00 | 10 | 1009.9 |
| 20260507190025 | 90 | 258 | 1.0 | 5.0 | 0.00 | 0.00 | 0.00 | 10 | 1010.0 |
| 20260507010024 | 83 | 151 | 2.0 | 10.0 | 0.00 | 0.00 | 0.00 | 18 | 1010.1 |
| 20260507005517 | 84 | 213 | 2.0 | 7.0 | 0.00 | 0.00 | 0.00 | 18 | 1010.2 |
| 20260507005016 | 84 | 190 | 2.0 | 6.0 | 0.00 | 0.00 | 0.00 | 18 | 1010.1 |
| 20260507004516 | 84 | 184 | 2.0 | 7.0 | 0.00 | 0.00 | 0.00 | 18 | 1010.2 |
| 20260507004015 | 84 | 260 | 3.0 | 7.0 | 0.00 | 0.00 | 0.00 | 17 | 1010.2 |
| 20260507003515 | 85 | 173 | 1.0 | 7.0 | 0.00 | 0.00 | 0.00 | 18 | 1010.1 |
| 20260507003015 | 85 | 211 | 3.0 | 7.0 | 0.00 | 0.00 | 0.00 | 17 | 1010.2 |
| 20260507002514 | 85 | 213 | 2.0 | 6.0 | 0.00 | 0.00 | 0.00 | 18 | 1010.2 |
| 20260507002014 | 85 | 205 | 1.0 | 8.0 | 0.00 | 0.00 | 0.00 | 17 | 1010.1 |
| 20260507001515 | 85 | 222 | 2.0 | 9.0 | 0.00 | 0.00 | 0.00 | 18 | 1010.1 |
| 20260507001013 | 85 | 198 | 2.0 | 9.0 | 0.00 | 0.00 | 0.00 | 17 | 1010.1 |
| 20260507000513 | 85 | 203 | 2.0 | 7.0 | 0.00 | 0.00 | 0.00 | 18 | 1010.0 |
| 20260507000018 | 86 | 224 | 2.0 | 7.0 | 0.00 | 0.00 | 0.00 | 18 | 1010.2 |
| 20260506235513 | 86 | 257 | 1.0 | 6.0 | 0.00 | 0.00 | 0.00 | 17 | 1010.1 |
| 20260506235011 | 86 | 183 | 2.0 | 7.0 | 0.00 | 0.00 | 0.00 | 17 | 1010.2 |
| 20260506234511 | 86 | 171 | 1.0 | 7.0 | 0.00 | 0.00 | 0.00 | 18 | 1010.2 |
| 20260506234011 | 86 | 95 | 0.0 | 8.0 | 0.00 | 0.00 | 0.00 | 18 | 1010.3 |
| 20260506233511 | 86 | 203 | 2.0 | 8.0 | 0.00 | 0.00 | 0.00 | 17 | 1010.2 |
| 20260506233010 | 86 | 180 | 1.0 | 7.0 | 0.00 | 0.00 | 0.00 | 18 | 1010.2 |
| 20260506232511 | 86 | 310 | 2.0 | 7.0 | 0.00 | 0.00 | 0.00 | 18 | 1010.4 |
| 20260506232009 | 86 | 141 | 2.0 | 8.0 | 0.00 | 0.00 | 0.00 | 18 | 1010.4 |
| 20260506231510 | 86 | 210 | 2.0 | 8.0 | 0.00 | 0.00 | 0.00 | 18 | 1010.4 |
| 20260506231008 | 86 | 167 | 1.0 | 8.0 | 0.00 | 0.00 | 0.00 | 18 | 1010.5 |
| 20260506230507 | 86 | 225 | 2.0 | 5.0 | 0.00 | 0.00 | 0.00 | 18 | 1010.6 |
| 20260506230007 | 86 | 182 | 2.0 | 5.0 | 0.00 | 0.00 | 0.00 | 18 | 1010.7 |
| 20260506225506 | 86 | 251 | 2.0 | 9.0 | 0.00 | 0.00 | 0.00 | 18 | 1010.7 |
| 20260506225006 | 86 | 155 | 2.0 | 10.0 | 0.00 | 0.00 | 0.00 | 18 | 1010.7 |
| 20260506224505 | 86 | 250 | 2.0 | 9.0 | 0.00 | 0.00 | 0.00 | 18 | 1010.8 |
| 20260506224004 | 86 | 179 | 2.0 | 9.0 | 0.00 | 0.00 | 0.00 | 18 | 1010.8 |
| 20260506223503 | 86 | 175 | 1.0 | 5.0 | 0.00 | 0.00 | 0.00 | 18 | 1010.9 |
| 20260506223002 | 85 | 240 | 1.0 | 6.0 | 0.00 | 0.00 | 0.00 | 18 | 1010.9 |
| 20260506222502 | 85 | 192 | 1.0 | 8.0 | 0.00 | 0.00 | 0.00 | 18 | 1011.0 |
| 20260506222002 | 85 | 228 | 1.0 | 6.0 | 0.00 | 0.00 | 0.00 | 18 | 1011.1 |
| 20260506221504 | 85 | 229 | 2.0 | 6.0 | 0.00 | 0.00 | 0.00 | 18 | 1011.2 |
| 20260506221002 | 86 | 166 | 2.0 | 6.0 | 0.00 | 0.00 | 0.00 | 19 | 1011.3 |
| 20260506220501 | 86 | 298 | 1.0 | 6.0 | 0.00 | 0.00 | 0.00 | 18 | 1011.3 |
| 20260506220101 | 86 | 190 | 2.0 | 10.0 | 0.00 | 0.00 | 0.00 | 18 | 1011.4 |
| 20260506215600 | 86 | 213 | 1.0 | 10.0 | 0.00 | 0.00 | 0.00 | 19 | 1011.4 |
| 20260506215058 | 85 | 144 | 2.0 | 9.0 | 0.00 | 0.00 | 0.00 | 19 | 1011.4 |
| 20260506214601 | 85 | 128 | 2.0 | 9.0 | 0.00 | 0.00 | 0.00 | 20 | 1011.6 |
| 20260506214057 | 85 | 171 | 3.0 | 9.0 | 0.00 | 0.00 | 0.00 | 20 | 1011.7 |
| 20260506213559 | 85 | 226 | 1.0 | 8.0 | 0.00 | 0.00 | 0.00 | 20 | 1011.8 |
| 20260506213059 | 84 | 251 | 3.0 | 8.0 | 0.00 | 0.00 | 0.00 | 20 | 1011.9 |
| 20260506212555 | 84 | 213 | 1.0 | 6.0 | 0.00 | 0.00 | 0.00 | 20 | 1012.0 |
| 20260506212055 | 84 | 184 | 2.0 | 6.0 | 0.00 | 0.00 | 0.00 | 21 | 1012.1 |
| 20260506211556 | 84 | 226 | 1.0 | 5.0 | 0.00 | 0.00 | 0.00 | 21 | 1012.2 |
| 20260506211055 | 83 | 234 | 1.0 | 5.0 | 0.00 | 0.00 | 0.00 | 21 | 1012.3 |
| 20260506210554 | 84 | 273 | 1.0 | 7.0 | 0.00 | 0.00 | 0.00 | 20 | 1012.4 |
| 20260506210054 | 84 | 134 | 2.0 | 7.0 | 0.00 | 0.00 | 0.00 | 22 | 1012.5 |
| 20260506205553 | 84 | 184 | 2.0 | 7.0 | 0.00 | 0.00 | 0.00 | 22 | 1012.5 |
| 20260506205052 | 84 | 182 | 2.0 | 7.0 | 0.00 | 0.00 | 0.00 | 20 | 1012.7 |
| 20260506204552 | 84 | 115 | 3.0 | 7.0 | 0.00 | 0.00 | 0.00 | 20 | 1012.7 |
| 20260506204050 | 83 | 183 | 1.0 | 6.0 | 0.00 | 0.00 | 0.00 | 21 | 1012.7 |
| 20260506203549 | 82 | 173 | 0.0 | 6.0 | 0.00 | 0.00 | 0.00 | 21 | 1012.8 |
| 20260506203049 | 81 | 229 | 0.0 | 5.0 | 0.00 | 0.00 | 0.00 | 22 | 1012.8 |
| 20260506202549 | 82 | 106 | 1.0 | 9.0 | 0.00 | 0.00 | 0.00 | 22 | 1012.8 |
| 20260506202049 | 82 | 274 | 4.0 | 9.0 | 0.00 | 0.00 | 0.00 | 21 | 1013.0 |
| 20260506201550 | 82 | 205 | 1.0 | 5.0 | 0.00 | 0.00 | 0.00 | 22 | 1013.0 |
| 20260506201048 | 82 | 115 | 2.0 | 5.0 | 0.00 | 0.00 | 0.00 | 21 | 1013.1 |
| 20260506200545 | 81 | 263 | 0.0 | 6.0 | 0.00 | 0.00 | 0.00 | 22 | 1013.1 |
| 20260506200046 | 80 | 198 | 1.0 | 6.0 | 0.00 | 0.00 | 0.00 | 23 | 1013.2 |